Weather History for Wellsville, NY

Change the Weather History Date:

Monday, August 4, 2014

  Actual Average (KBFD) Record (KBFD)
Temperature  
Mean Temperature 21 °C 18 °C  
Max Temperature 26 °C 25 °C 30 °C (1988)
Min Temperature 15 °C 12 °C 4 °C (1966)
Degree Days  
Heating Degree Days 0 0  
Month to date heating degree days 0  
Since 1 June heating degree days 209  
Since 1 July heating degree days 64  
Cooling Degree Days 4 2  
Month to date cooling degree days 8  
Year to date cooling degree days 132  
Since 1 June cooling degree days 122  
Growing Degree Days 19 (Base 50)    
Moisture  
Dew Point 14 °C    
Average Humidity 79    
Maximum Humidity 90    
Minimum Humidity 45    
Precipitation  
Precipitation 0.00 mm 3.30 mm 3.45 mm (1960)
Month to date precipitation 0.55  
Year to date precipitation 26.39  
Sea Level Pressure  
Sea Level Pressure 1021 hPa    
Wind  
Wind Speed 5 km/h (WNW)    
Max Wind Speed 14 km/h    
Max Gust Speed -    
Visibility 12 kilometers    
Events Fog    
T = Trace of Precipitation, MM = Missing Value Source: NWS Daily Summary

Daily Weather History Graph

Daily Weather History Graph

Search for Another Location

Airport:

Trip Planner

Search our weather history database for the weather conditions in past years. The results will help you decide how hot, cold, wet, or windy it might be!

Date:

Astronomy

Aug. 04, 2014 Rise Set
Actual Time 6:08 AM EDT 8:27 PM EDT
Civil Twilight 5:36 AM EDT 8:58 PM EDT
Nautical Twilight 4:58 AM EDT 9:36 PM EDT
Astronomical Twilight 4:15 AM EDT 10:19 PM EDT
Moon 2:36 PM EDT (8/4) 12:14 AM EDT (8/4)
Length of Visible Light 15h 21m
Length of Day
14h 19m
First Quarter, 57% of the Moon is Illuminated
Aug 4
First Quarter
Aug 10
Full
Aug 17
Last Quarter
Aug 25
New
Sep 2
First Quarter

Hourly Weather History & Observations

Time (EDT) Temp. Dew Point Humidity Pressure Visibility Wind Dir Wind Speed Gust Speed Precip Events Conditions
12:01 AM 16.7 °C 14.4 °C 86% 1020.5 hPa 4.0 km Calm Calm - N/A   Mostly Cloudy
12:05 AM 16.7 °C 14.4 °C 86% 1020.2 hPa 1.2 km NE 5.6 km/h / 1.5 m/s - N/A   Mostly Cloudy
12:36 AM 16.7 °C 15.0 °C 90% 1020.5 hPa 3.2 km Calm Calm - N/A   Overcast
12:44 AM 16.7 °C 14.4 °C 86% 1020.5 hPa 4.8 km Calm Calm - N/A   Overcast
1:11 AM 16.1 °C 13.9 °C 87% 1020.5 hPa 2.8 km Calm Calm - N/A   Mostly Cloudy
1:22 AM 16.7 °C 14.4 °C 86% 1020.5 hPa 4.8 km Calm Calm - N/A   Overcast
1:56 AM 16.7 °C 14.4 °C 86% 1020.0 hPa 16.1 km West 9.3 km/h / 2.6 m/s - N/A   Overcast
2:29 AM 16.7 °C 15.0 °C 90% 1020.5 hPa 16.1 km Calm Calm - N/A   Overcast
2:56 AM 16.7 °C 14.4 °C 86% 1019.5 hPa 16.1 km West 5.6 km/h / 1.5 m/s - N/A   Overcast
3:20 AM 16.7 °C 14.4 °C 86% 1020.2 hPa 16.1 km Calm Calm - N/A   Mostly Cloudy
3:34 AM 16.7 °C 13.9 °C 84% 1020.2 hPa 16.1 km Calm Calm - N/A   Scattered Clouds
3:56 AM 15.6 °C 13.9 °C 90% 1019.5 hPa 16.1 km WSW 7.4 km/h / 2.1 m/s - N/A   Clear
4:29 AM 15.6 °C 13.3 °C 86% 1020.5 hPa 3.2 km WNW 14.8 km/h / 4.1 m/s - N/A   Partly Cloudy
4:31 AM 15.6 °C 13.3 °C 86% 1020.5 hPa 1.6 km West 13.0 km/h / 3.6 m/s - N/A   Mist
4:38 AM 15.6 °C 13.9 °C 90% 1020.5 hPa 0.8 km West 11.1 km/h / 3.1 m/s - N/A Fog Fog
5:01 AM 16.1 °C 13.9 °C 87% 1020.5 hPa 6.4 km West 11.1 km/h / 3.1 m/s - N/A   Overcast
5:29 AM 15.6 °C 13.9 °C 90% 1020.5 hPa 16.1 km West 7.4 km/h / 2.1 m/s - N/A   Scattered Clouds
5:45 AM 15.6 °C 13.3 °C 86% 1020.9 hPa 4.0 km West 5.6 km/h / 1.5 m/s - N/A   Mostly Cloudy
5:56 AM 15.0 °C 13.3 °C 90% 1020.3 hPa 2.8 km West 7.4 km/h / 2.1 m/s - N/A   Mostly Cloudy
6:05 AM 15.0 °C 13.3 °C 90% 1020.9 hPa 4.8 km West 11.1 km/h / 3.1 m/s - N/A   Overcast
6:45 AM 15.6 °C 13.9 °C 90% 1020.9 hPa 12.9 km West 9.3 km/h / 2.6 m/s - N/A   Scattered Clouds
6:56 AM 15.6 °C 13.3 °C 86% 1020.6 hPa 11.3 km WNW 13.0 km/h / 3.6 m/s - N/A   Clear
7:04 AM 15.6 °C 13.9 °C 90% 1021.2 hPa 8.0 km West 13.0 km/h / 3.6 m/s - N/A   Scattered Clouds
7:13 AM 16.1 °C 13.9 °C 87% 1021.2 hPa 8.0 km West 11.1 km/h / 3.1 m/s - N/A   Mostly Cloudy
7:56 AM 16.7 °C 14.4 °C 86% 1020.8 hPa 14.5 km WNW 7.4 km/h / 2.1 m/s - N/A   Overcast
8:28 AM 16.7 °C 14.4 °C 86% 1021.9 hPa 16.1 km WNW 9.3 km/h / 2.6 m/s - N/A   Overcast
8:56 AM 17.2 °C 15.0 °C 87% 1021.4 hPa 16.1 km NW 9.3 km/h / 2.6 m/s - N/A   Overcast
9:28 AM 18.3 °C 15.0 °C 81% 1021.9 hPa 16.1 km Calm Calm - N/A   Overcast
9:56 AM 19.4 °C 15.0 °C 76% 1021.2 hPa 16.1 km Variable 5.6 km/h / 1.5 m/s - N/A   Mostly Cloudy
10:04 AM 20.0 °C 15.6 °C 76% 1021.9 hPa 16.1 km NNE 7.4 km/h / 2.1 m/s - N/A   Scattered Clouds
10:56 AM 21.1 °C 16.1 °C 73% 1021.2 hPa 16.1 km Calm Calm - N/A   Partly Cloudy
11:56 AM 23.3 °C 15.0 °C 59% 1021.2 hPa 16.1 km Calm Calm - N/A   Partly Cloudy
12:56 PM 23.3 °C 15.6 °C 62% 1020.7 hPa 16.1 km Variable 5.6 km/h / 1.5 m/s - N/A   Partly Cloudy
1:56 PM 25.0 °C 15.0 °C 54% 1020.2 hPa 16.1 km Variable 5.6 km/h / 1.5 m/s - N/A   Mostly Cloudy
2:56 PM 25.0 °C 14.4 °C 52% 1019.9 hPa 16.1 km West 9.3 km/h / 2.6 m/s - N/A   Mostly Cloudy
4:56 PM 26.1 °C 13.3 °C 45% 1019.2 hPa 16.1 km SW 7.4 km/h / 2.1 m/s - N/A   Partly Cloudy
5:56 PM 25.6 °C 14.4 °C 50% 1019.1 hPa 16.1 km West 7.4 km/h / 2.1 m/s - N/A   Partly Cloudy
6:56 PM 24.4 °C 14.4 °C 54% 1019.6 hPa 16.1 km West 9.3 km/h / 2.6 m/s - N/A   Clear
7:56 PM 22.2 °C 13.9 °C 59% 1019.6 hPa 16.1 km West 5.6 km/h / 1.5 m/s - N/A   Clear
8:56 PM 20.6 °C 13.3 °C 63% 1019.5 hPa 16.1 km West 9.3 km/h / 2.6 m/s - N/A   Clear
9:56 PM 18.9 °C 14.4 °C 75% 1020.1 hPa 16.1 km North 11.1 km/h / 3.1 m/s - N/A   Clear
10:56 PM 17.8 °C 13.9 °C 78% 1020.0 hPa 16.1 km WNW 9.3 km/h / 2.6 m/s - N/A   Clear
11:56 PM 18.3 °C 13.9 °C 75% 1019.8 hPa 16.1 km Calm Calm - N/A   Clear